Regional Weather Roundup
Issued by NWS

Home | Current Version | Previous Version | Graphics & Text | Print | Product List | Glossary On
Versions: 1 2 3 4 5 6 7 8 9 10 11 12 13 14 15 16 17 18 19 20 21 22 23 24 25 26 27 28 29 30 31 32 33 34 35 36 37 38 39 40 41 42 43 44 45 46 47 48 49 50
913
ASUS45 KSLC 251610
RWRUT

UTAH REGIONAL WEATHER ROUNDUP
NATIONAL WEATHER SERVICE SALT LAKE CITY UT
1000 AM MDT THU AUG 25 2016

UTZ001>011-023>025-251700-

NORTHERN UTAH

CITY           SKY/WX    TMP DP  RH WIND       PRES   REMARKS
BRIGHAM CITY     N/A     63  33  33 CALM      30.15R
HILL AFB       PTSUNNY   59  31  33 E14       30.15R
LOGAN          MOSUNNY   59  37  44 NW6       30.18S
OGDEN          CLOUDY    65  32  29 NE12      30.13R
PROVO AIRPORT  MOSUNNY   66  28  24 S5        30.13F
SALT LAKE CITY CLOUDY    69  32  25 N10       30.12R
VERNAL         SUNNY     66  38  35 NE9       30.22F
WENDOVER       PTSUNNY   70  25  18 SE7       30.13S
HEBER CITY     PTSUNNY   54  27  35 CALM      30.23S
WEST JORDAN    CLOUDY    64  31  28 CALM      30.13S

$$

UTZ012>022-026-027-251700-

SOUTHERN/CENTRAL UTAH

CITY           SKY/WX    TMP DP  RH WIND       PRES   REMARKS
BLANDING       MOSUNNY   66  44  44 S6        30.33S
BRYCE CANYON   MOSUNNY   65  42  43 SE6       30.32F
CEDAR CITY     MOSUNNY   65  43  44 MISG      30.19R
DELTA          MOSUNNY   68  23  18 S9        30.13S
MILFORD        MOSUNNY   68  30  24 CALM      30.15S
MOAB/CYNLANDS  MOSUNNY   70  44  39 E6        30.13S
PRICE          MOSUNNY   69  24  18 E3        30.21S
ST GEORGE      PTSUNNY   79  46  31 S6        30.04F

$$

REGIONAL REPORTS     COLORADO/ARIZONA

CITY           SKY/WX    TMP DP  RH WIND       PRES   REMARKS
CRAIG, CO      SUNNY     57  39  51 VRB3      30.29F
GRAND JUNCTION PTSUNNY   62  45  53 SW7       30.22R
RIFLE          SUNNY     62  43  49 CALM      30.24S
MONTROSE       SUNNY     65  42  43 VRB5      30.26S
CORTEZ         SUNNY     67  49  52 CALM      30.26S
PAGE, AZ       MOSUNNY   75  46  35 N6        30.13R
GRAND CANYON   SUNNY     71  48  43 SW10      30.31S
KINGMAN        SUNNY     82  53  36 E10       30.07S
FLAGSTAFF      MOSUNNY   65  49  56 SW6       30.34S

$$

REGIONAL REPORTS    NEVADA/IDAHO/WYOMING

CITY           SKY/WX    TMP DP  RH WIND       PRES   REMARKS
LAS VEGAS, NV  MOSUNNY   90  36  14 S8        29.91R
ELY            MOSUNNY   55  21  26 CALM      30.22S
ELKO           SUNNY     64  26  23 CALM      30.17F
POCATELLO, ID  SUNNY     59  38  45 NE10      30.21S
EVANSTON, WY   CLOUDY    50  37  61 E10       30.31S
ROCK SPRINGS   NOT AVBL

$$




USA.gov is the U.S. government's official web portal to all federal, state and local government web resources and services.